"2009-10-22 00:00:00",1348126,7.854,67.71,3.582,0.828,6.391,100.3397,0.166,1.514,83.3,0,109.6,13.61,0.92,29.7
"2009-10-22 00:00:30",1348127,8.08,68.59,3.716,0.708,6.01,100.3397,0.166,1.507,83.2,0,109.6,13.61,0.92,30.6
"2009-10-22 00:01:00",1348128,6.331,57.56,5.88,1.138,3.101,100.3397,0.166,1.284,83,0,109.6,13.61,0.92,19.6
"2009-10-22 00:01:30",1348129,6.954,71.27,7.491,1.134,5.236,100.3397,0.166,1.403,83,0,109.6,13.61,0.92,33.3
"2009-10-22 00:02:00",1348130,6.837,63.9,6.502,1.104,4.667,100.3397,0.166,1.403,83,0,109.6,13.61,0.92,25.9
"2009-10-22 00:02:30",1348131,8.02,68.52,4.404,0.709,6.563,100.3397,0.166,1.509,83.1,0,109.6,13.61,0.92,30.5
"2009-10-22 00:03:00",1348132,7.944,69.74,3.517,0.733,6.336,100.3397,0.166,1.478,83.1,0,109.6,13.61,0.92,31.7
"2009-10-22 00:03:30",1348133,8.21,69.91,4.089,0.594,6.41,100.3397,0.166,1.484,83.1,0,109.6,13.61,0.92,31.9
"2009-10-22 00:04:00",1348134,8.14,71.43,4.345,0.789,6.083,100.3397,0.166,1.482,83,0,109.6,13.6,0.92,33.4
"2009-10-22 00:04:30",1348135,6.554,66.42,5.583,1.162,3.441,100.3397,0.166,1.312,82.9,0,109.6,13.6,0.92,28.4
"2009-10-22 00:05:00",1348136,7.462,68.23,5.473,1.088,4.93,100.3397,0.166,1.344,82.9,0,109.6,13.6,0.92,30.2
"2009-10-22 00:05:30",1348137,7.317,64.94,7.111,1.159,4.47,100.3397,0.166,1.423,83,0,109.6,13.61,0.92,26.9
"2009-10-22 00:06:00",1348138,7.602,65.51,4.642,0.926,6.331,100.3397,0.166,1.495,83.1,0,109.6,13.61,0.92,27.5
"2009-10-22 00:06:30",1348139,7.641,66.39,3.495,0.642,6.39,100.3397,0.166,1.477,83.2,0,109.6,13.61,0.92,28.4
"2009-10-22 00:07:00",1348140,7.117,63.29,5.421,1.097,5.423,100.3397,0.166,1.481,83.2,0,109.6,13.61,0.92,25.3
"2009-10-22 00:07:30",1348141,7.365,68.36,5.522,0.912,5.791,100.3397,0.166,1.471,83.2,0,109.6,13.6,0.92,30.4
"2009-10-22 00:08:00",1348142,6.899,64.95,6.152,1.153,4.821,100.3397,0.166,1.357,83,0,109.6,13.6,0.92,26.9
"2009-10-22 00:08:30",1348143,6.617,63.32,6.998,1.247,4.231,100.3397,0.166,1.42,83.1,0,109.6,13.6,0.92,25.3
"2009-10-22 00:09:00",1348144,7.356,69.2,5.416,1.09,5.245,100.3397,0.166,1.388,83.1,0,109.6,13.6,0.92,31.2
"2009-10-22 00:09:30",1348145,6.857,66.46,6.002,1.192,5.089,100.3397,0.166,1.438,83.1,0,109.6,13.6,0.92,28.5
"2009-10-22 00:10:00",1348146,7.381,72.44,4.576,0.943,5.815,100.3397,0.166,1.48,83.2,0,109.6,13.6,0.92,34.4
"2009-10-22 00:10:30",1348147,7.222,74.89,3.318,0.801,6.184,100.3397,0.166,1.492,83.3,0,109.6,13.6,0.92,36.9
"2009-10-22 00:11:00",1348148,6.912,67.35,6.519,0.9,4.971,100.3397,0.166,1.427,83.3,0,109.6,13.6,0.92,29.3
"2009-10-22 00:11:30",1348149,6.302,67.19,5.907,1.225,4.547,100.3397,0.166,1.45,83.4,0,109.6,13.6,0.92,29.2
"2009-10-22 00:12:00",1348150,6.326,65.62,7.314,1.098,3.991,100.3397,0.166,1.262,83.3,0,109.6,13.6,0.92,27.6
"2009-10-22 00:12:30",1348151,6.804,63.71,5.867,1.132,5.162,100.3397,0.166,1.409,83.5,0,109.6,13.6,0.92,25.7
"2009-10-22 00:13:00",1348152,7.491,66.44,6.07,0.736,5.616,100.3397,0.166,1.438,83.5,0,109.5,13.61,0.92,28.4
"2009-10-22 00:13:30",1348153,7.473,68.82,5.149,0.94,5.635,100.3394,0.166,1.472,83.5,0,109.6,13.61,0.92,30.8
"2009-10-22 00:14:00",1348154,7.609,66.2,4.757,0.786,6.041,100.3388,0.164,1.46,83.5,0,109.6,13.61,0.92,28.2
"2009-10-22 00:14:30",1348155,8.22,66.87,3.443,0.633,6.34,100.3371,0.16,1.51,83.5,0,109.6,13.61,0.91,28.9
"2009-10-22 00:15:00",1348156,8.07,69.01,4.216,0.689,6.533,100.334,0.152,1.486,83.5,0,109.6,13.61,0.90,31.0
"2009-10-22 00:15:30",1348157,7.428,69.88,3.966,0.681,6.023,100.3335,0.151,1.479,83.5,0,109.6,13.6,0.90,31.9
"2009-10-22 00:16:00",1348158,7.377,69.5,3.761,0.64,5.979,100.3278,0.136,1.469,83.5,0,109.6,13.6,0.89,31.5
"2009-10-22 00:16:30",1348159,7.367,66.66,5.188,0.936,4.724,100.3269,0.134,1.36,83.4,0,109.6,13.6,0.89,28.7
"2009-10-22 00:17:00",1348160,5.748,56.64,1.599,0.129,1.509,100.3235,0.125,1.292,83.4,0,109.6,13.64,0.88,18.6
"2009-10-22 00:17:30",1348161,7.33,62.98,5.712,1.195,4.244,100.321,0.119,1.334,83.4,0,109.6,13.61,0.87,25.0
"2009-10-22 00:18:00",1348162,8.12,67.9,3.404,0.69,6.322,100.3167,0.108,1.472,83.4,0,109.6,13.61,0.86,29.9
"2009-10-22 00:18:30",1348163,7.856,66.6,3.098,0.735,6.37,100.3125,0.097,1.465,83.4,0,109.6,13.61,0.85,28.6
"2009-10-22 00:19:00",1348164,7.959,68.53,3.658,0.538,6.691,100.308,0.086,1.436,83.3,0,109.6,13.61,0.84,30.5
"2009-10-22 00:19:30",1348165,7.545,67.99,3.488,0.757,6.25,100.3063,0.081,1.482,83.3,0,109.6,13.61,0.83,30.0
"2009-10-22 00:20:00",1348166,7.232,65.06,5.691,1.054,5.196,100.3057,0.08,1.398,83.2,0,109.6,13.61,0.83,27.1
"2009-10-22 00:20:30",1348167,6.816,64.85,6.081,1.171,3.835,100.3057,0.08,1.276,83.2,0,109.6,13.61,0.83,26.8
"2009-10-22 00:21:00",1348168,6.633,63.51,6.272,1.073,3.419,100.3057,0.08,1.359,83.3,0,109.6,13.61,0.83,25.5
"2009-10-22 00:21:30",1348169,6.883,64.17,6.219,1.18,4.838,100.3057,0.08,1.386,83.3,0,109.6,13.61,0.83,26.2
"2009-10-22 00:22:00",1348170,7.828,64.79,4.497,0.558,6.549,100.3057,0.08,1.438,83.5,0,109.6,13.61,0.83,26.8
"2009-10-22 00:22:30",1348171,7.945,66.29,3.581,0.78,6.313,100.3057,0.08,1.45,83.5,0,109.6,13.61,0.83,28.3
"2009-10-22 00:23:00",1348172,7.645,68.51,3.574,0.664,6.179,100.3057,0.08,1.444,83.6,0,109.6,13.61,0.83,30.5
"2009-10-22 00:23:30",1348173,7.313,64.22,5.891,0.876,5.64,100.3057,0.08,1.417,83.6,0,109.6,13.6,0.83,26.2
"2009-10-22 00:24:00",1348174,6.717,60.4,5.452,1.076,4.101,100.3057,0.08,1.311,83.6,0,109.6,13.6,0.83,22.4
"2009-10-22 00:24:30",1348175,6.166,60.74,7.329,1.203,3.452,100.3057,0.08,1.21,83.6,0,109.6,13.6,0.83,22.7
"2009-10-22 00:25:00",1348176,5.73,61.85,7.389,1.253,3.749,100.3057,0.08,1.336,83.8,0,109.6,13.6,0.83,23.8
"2009-10-22 00:25:30",1348177,6.687,67.15,4.519,0.948,5.883,100.3057,0.08,1.39,84,0,109.6,13.6,0.83,29.2
"2009-10-22 00:26:00",1348178,6.798,65.53,4.275,0.678,6.324,100.3057,0.08,1.43,84.1,0,109.6,13.6,0.83,27.5
"2009-10-22 00:26:30",1348179,6.59,66.41,4.98,0.668,6.195,100.3051,0.078,1.447,84.2,0,109.6,13.6,0.83,28.4
"2009-10-22 00:27:00",1348180,6.016,65.74,8.01,1.177,3.588,100.3029,0.073,1.319,84.2,0,109.6,13.6,0.82,27.7
"2009-10-22 00:27:30",1348181,5.8,64.11,4.515,0.807,3.418,100.2995,0.064,1.277,84.2,0,109.6,13.6,0.82,26.1
"2009-10-22 00:28:00",1348182,5.182,60.9,8.09,1.229,3.093,100.2921,0.045,1.217,84.2,0,109.6,13.6,0.80,22.9
"2009-10-22 00:28:30",1348183,6.148,63.79,5.346,1.145,4.964,100.2845,0.026,1.379,84.4,0,109.6,13.61,0.78,25.8
"2009-10-22 00:29:00",1348184,6.722,69.35,3.804,0.717,6.305,100.2794,0.013,1.407,84.4,0,109.6,13.61,0.76,31.3
"2009-10-22 00:29:30",1348185,7.107,70.53,4.309,0.747,5.939,100.2765,0.006,1.405,84.4,0,109.6,13.61,0.76,32.5
"2009-10-22 00:30:00",1348186,7.09,67.15,4.502,0.999,5.475,100.2723,-0.005,1.374,84.4,0,109.6,13.61,0.75,29.2
"2009-10-22 00:30:30",1348187,6.973,68.65,7.465,1.357,4.019,100.2723,-0.005,1.237,84.3,0,109.6,13.61,0.75,30.7
"2009-10-22 00:31:00",1348188,6.502,65.28,5.711,1.097,2.556,100.2726,-0.005,1.167,84.1,0,109.6,13.61,0.75,27.3
"2009-10-22 00:31:30",1348189,7.766,70.32,4.52,0.842,5.916,100.2723,-0.005,1.366,84.2,0,109.6,13.61,0.75,32.3
"2009-10-22 00:32:00",1348190,7.419,68.67,3.81,0.734,6.413,100.272,-0.006,1.379,84.1,0,109.6,13.62,0.75,30.7
"2009-10-22 00:32:30",1348191,7.526,69.91,4.333,0.629,6.235,100.272,-0.006,1.381,84,0,109.6,13.61,0.75,31.9
"2009-10-22 00:33:00",1348192,7.165,70.19,3.979,0.751,5.629,100.272,-0.006,1.286,83.9,0,109.6,13.61,0.75,32.2
"2009-10-22 00:33:30",1348193,6.316,69.17,5.758,1.192,4.469,100.2726,-0.005,1.283,83.9,0,109.6,13.61,0.75,31.2
"2009-10-22 00:34:00",1348194,5.689,61.07,5.443,1.064,1.781,100.272,-0.006,1.115,83.8,0,109.6,13.61,0.75,23.1
"2009-10-22 00:34:30",1348195,7.582,72.73,5.426,0.965,5.574,100.2703,-0.01,1.326,84,0,109.6,13.61,0.74,34.7
"2009-10-22 00:35:00",1348196,7.904,74.78,3.252,0.768,6.498,100.263,-0.029,1.366,83.9,0,109.6,13.62,0.72,36.8
"2009-10-22 00:35:30",1348197,8.08,72.99,4.017,0.577,6.237,100.2567,-0.045,1.355,83.7,0,109.6,13.62,0.71,35.0
"2009-10-22 00:36:00",1348198,7.981,71.77,3.289,0.588,6.038,100.2477,-0.068,1.329,83.5,0,109.6,13.61,0.68,33.8
"2009-10-22 00:36:30",1348199,7.638,71.76,3.555,0.836,5.901,100.2409,-0.085,1.304,83.3,0,109.6,13.61,0.67,33.8
"2009-10-22 00:37:00",1348200,6.422,63.02,5.719,1.1,3.174,100.2381,-0.093,1.186,83,0,109.6,13.61,0.66,25.0
"2009-10-22 00:37:30",1348201,6.499,62.97,6.213,1.199,3.709,100.2403,-0.087,1.237,83,0,109.6,13.61,0.66,25.0
"2009-10-22 00:38:00",1348202,7.099,65.58,6.165,1.049,4.926,100.2392,-0.09,1.225,82.9,0,109.6,13.61,0.66,27.6
"2009-10-22 00:38:30",1348203,7.42,67.78,5.01,0.944,5.865,100.24,-0.088,1.254,82.9,0,109.6,13.61,0.66,29.8
"2009-10-22 00:39:00",1348204,7.191,64.86,5.992,1.103,5.125,100.2409,-0.085,1.275,82.8,0,109.6,13.62,0.67,26.9
"2009-10-22 00:39:30",1348205,7.655,67.39,3.925,0.68,5.931,100.2423,-0.082,1.302,82.8,0,109.6,13.61,0.67,29.4
"2009-10-22 00:40:00",1348206,7.347,67.42,4.753,1.049,5.097,100.2432,-0.08,1.257,82.8,0,109.6,13.6,0.67,29.4
"2009-10-22 00:40:30",1348207,6.759,66.51,6.081,1.16,4.324,100.2429,-0.08,1.21,82.8,0,109.6,13.6,0.67,28.5
"2009-10-22 00:41:00",1348208,6.79,65.8,5.431,1.191,4.478,100.2406,-0.086,1.193,82.7,0,109.6,13.6,0.67,27.8
"2009-10-22 00:41:30",1348209,7.047,63.67,5.698,1.117,4.554,100.2398,-0.088,1.155,82.7,0,109.6,13.6,0.66,25.7
"2009-10-22 00:42:00",1348210,7.003,65.4,4.982,1.109,5.234,100.2361,-0.098,1.206,82.7,0,109.6,13.6,0.65,27.4
"2009-10-22 00:42:30",1348211,7.601,64.76,3.449,0.702,6.067,100.2321,-0.108,1.246,82.7,0,109.6,13.6,0.64,26.8
"2009-10-22 00:43:00",1348212,7.652,68.36,2.673,0.834,5.941,100.2262,-0.123,1.245,82.7,0,109.6,13.6,0.63,30.4
"2009-10-22 00:43:30",1348213,7.069,66.22,5.456,1.067,4.625,100.2211,-0.136,1.227,82.7,0,109.6,13.6,0.62,28.2
"2009-10-22 00:44:00",1348214,6.589,64.66,6.249,1.273,3.792,100.2236,-0.129,1.17,82.6,0,109.6,13.6,0.62,26.7
"2009-10-22 00:44:30",1348215,6.697,64.49,6.971,1.287,3.794,100.2151,-0.151,1.047,82.4,0,109.6,13.6,0.60,26.5
"2009-10-22 00:45:00",1348216,7.001,63.77,6.136,1.188,4.529,100.212,-0.159,1.148,82.5,0,109.6,13.61,0.59,25.8
"2009-10-22 00:45:30",1348217,8.02,65.6,4.832,0.792,6.182,100.2117,-0.16,1.229,82.5,0,109.6,13.61,0.59,27.6
"2009-10-22 00:46:00",1348218,8.1,65.04,4.014,0.639,6.214,100.2123,-0.158,1.222,82.6,0,109.6,13.61,0.59,27.0
"2009-10-22 00:46:30",1348219,7.972,66.99,3.617,0.81,5.949,100.21,-0.164,1.208,82.6,0,109.6,13.62,0.59,29.0
"2009-10-22 00:47:00",1348220,7.768,65.02,4.5,0.74,5.668,100.2095,-0.166,1.204,82.7,0,109.6,13.62,0.59,27.0
"2009-10-22 00:47:30",1348221,8.16,65.16,3.528,0.67,5.454,100.212,-0.159,1.206,82.8,0,109.6,13.61,0.59,27.2
"2009-10-22 00:48:00",1348222,8.33,65.96,2.928,0.743,5.408,100.2112,-0.161,1.202,82.7,0,109.6,13.61,0.59,28.0
"2009-10-22 00:48:30",1348223,8.23,64.24,2.159,0.726,5.266,100.2095,-0.166,1.193,82.6,0,109.5,13.61,0.59,26.2
"2009-10-22 00:49:00",1348224,8.03,65.9,3.584,0.752,5.255,100.2112,-0.161,1.197,82.6,0,109.6,13.61,0.59,27.9
"2009-10-22 00:49:30",1348225,7.864,66.44,2.897,0.742,5.269,100.2115,-0.16,1.168,82.5,0,109.6,13.61,0.59,28.4
"2009-10-22 00:50:00",1348226,7.907,67.33,2.532,0.742,5.353,100.2132,-0.156,1.166,82.4,0,109.6,13.61,0.60,29.3
"2009-10-22 00:50:30",1348227,7.692,72.25,3.145,0.744,5.212,100.2112,-0.161,1.143,82.4,0,109.6,13.61,0.59,34.2
"2009-10-22 00:51:00",1348228,7.726,73.55,4.372,0.597,5.104,100.2123,-0.158,1.163,82.4,0,109.6,13.61,0.59,35.6
"2009-10-22 00:51:30",1348229,7.177,72.33,5.38,1.147,4.032,100.2081,-0.169,1.083,82.4,0,109.6,13.61,0.58,34.3
"2009-10-22 00:52:00",1348230,5.46,62.71,1.215,0.086,1.178,100.2055,-0.176,0.98,82.4,0,109.6,13.64,0.58,24.7
"2009-10-22 00:52:30",1348231,7.08,70.27,6.49,1.067,4.015,100.1979,-0.195,0.96,82.5,0,109.6,13.61,0.56,32.3
"2009-10-22 00:53:00",1348232,7.859,72.57,4.738,0.788,5.599,100.1959,-0.2,1.17,82.8,0,109.6,13.62,0.55,34.6
"2009-10-22 00:53:30",1348233,7.891,74.81,3.637,0.524,6.414,100.1902,-0.215,1.152,82.8,0,109.6,13.62,0.54,36.8
"2009-10-22 00:54:00",1348234,7.972,72.73,3.889,0.758,5.997,100.1857,-0.226,1.161,82.9,0,109.6,13.62,0.53,34.7
"2009-10-22 00:54:30",1348235,8.18,71.63,3.519,0.657,5.925,100.1843,-0.23,1.155,82.9,0,109.6,13.62,0.52,33.6
"2009-10-22 00:55:00",1348236,8.06,72.3,3.767,0.618,5.598,100.1817,-0.236,1.149,82.9,0,109.6,13.61,0.51,34.3
"2009-10-22 00:55:30",1348237,8.22,72.48,3.998,0.763,5.45,100.1806,-0.239,1.164,82.9,0,109.6,13.61,0.51,34.5
"2009-10-22 00:56:00",1348238,8.07,75.86,4.737,0.999,4.608,100.1815,-0.237,1.01,82.7,0,109.5,13.6,0.51,37.9
"2009-10-22 00:56:30",1348239,6.484,64.62,4.413,0.902,1.648,100.1803,-0.24,0.908,82.6,0,109.6,13.61,0.51,26.6
"2009-10-22 00:57:00",1348240,8.19,72.39,3.947,1.103,5.425,100.1806,-0.239,1.153,82.7,0,109.6,13.61,0.51,34.4
"2009-10-22 00:57:30",1348241,8.57,72.7,4.073,0.664,6.2,100.1843,-0.23,1.137,82.6,0,109.6,13.61,0.52,34.7
"2009-10-22 00:58:00",1348242,8.16,75.4,3.553,0.655,6.439,100.1837,-0.231,1.115,82.4,0,109.6,13.6,0.52,37.4
"2009-10-22 00:58:30",1348243,8.09,77.52,2.195,0.71,5.985,100.1877,-0.221,1.133,82.3,0,109.6,13.6,0.53,39.5
"2009-10-22 00:59:00",1348244,7.874,73.06,3.525,0.829,5.698,100.1866,-0.224,1.123,82.3,0,109.6,13.6,0.53,35.1
"2009-10-22 00:59:30",1348245,7.872,72.61,3.497,0.722,5.403,100.1866,-0.224,1.105,82.2,0,109.6,13.6,0.53,34.6
"2009-10-22 01:00:00",1348246,7.88,70.61,3.207,0.759,5.479,100.1857,-0.226,1.103,82.2,0,109.6,13.6,0.53,32.6
"2009-10-22 01:00:30",1348247,7.949,69.62,2.972,0.637,5.092,100.188,-0.22,1.088,82.2,0,109.5,13.6,0.53,31.6
"2009-10-22 01:01:00",1348248,7.797,69.28,2.264,0.815,4.96,100.1883,-0.22,1.095,82.1,0,109.6,13.61,0.53,31.3
"2009-10-22 01:01:30",1348249,7.813,67.6,2.641,0.849,5.051,100.1866,-0.224,1.099,82.2,0,109.5,13.61,0.53,29.6
"2009-10-22 01:02:00",1348250,7.687,68.81,3.147,0.826,4.935,100.1917,-0.211,1.116,82.2,0,109.6,13.61,0.54,30.8
"2009-10-22 01:02:30",1348251,7.983,67.12,3.361,0.646,5.08,100.1888,-0.218,1.112,82.2,0,109.5,13.61,0.53,29.1
"2009-10-22 01:03:00",1348252,7.891,63.8,5.72,0.976,4.106,100.1886,-0.219,1.04,82.2,0,109.6,13.61,0.53,25.8
"2009-10-22 01:03:30",1348253,6.323,58.23,3.595,0.836,1.654,100.1891,-0.217,0.919,82,0,109.5,13.61,0.53,20.2
"2009-10-22 01:04:00",1348254,7.472,64.71,5.632,1.1,4.297,100.1905,-0.214,0.97,82,0,109.5,13.61,0.54,26.7
"2009-10-22 01:04:30",1348255,7.711,66.4,6.315,0.783,5.316,100.1843,-0.23,1.011,82.1,0,109.6,13.62,0.52,28.4
"2009-10-22 01:05:00",1348256,8.19,65.75,4.458,0.458,6.231,100.1758,-0.251,1.086,82.3,0,109.6,13.62,0.50,27.8
"2009-10-22 01:05:30",1348257,7.915,67.09,3.095,0.743,6.077,100.171,-0.264,1.076,82.3,0,109.5,13.62,0.49,29.1
"2009-10-22 01:06:00",1348258,7.87,68.1,4.217,0.538,6.04,100.1642,-0.281,1.067,82.3,0,109.5,13.62,0.47,30.1
"2009-10-22 01:06:30",1348259,7.67,70.42,2.631,0.866,5.597,100.1608,-0.29,1.056,82.4,0,109.5,13.61,0.46,32.4
"2009-10-22 01:07:00",1348260,7.812,68.12,5.118,0.812,4.818,100.1551,-0.304,1.024,82.4,0,109.5,13.62,0.45,30.1
"2009-10-22 01:07:30",1348261,6.913,62.11,6.875,1.171,3.542,100.1574,-0.298,0.999,82.5,0,109.5,13.61,0.45,24.1
"2009-10-22 01:08:00",1348262,7.315,61.1,5.901,0.987,3.009,100.1577,-0.298,0.787,82.3,0,109.5,13.62,0.45,23.1
"2009-10-22 01:08:30",1348263,8.67,67.32,4.439,0.755,5.623,100.1585,-0.295,1.032,82.6,0,109.6,13.62,0.46,29.3
"2009-10-22 01:09:00",1348264,8.55,67.26,3.42,0.634,6.42,100.1591,-0.294,1.044,82.6,0,109.5,13.62,0.46,29.3
"2009-10-22 01:09:30",1348265,8.55,66.9,3.767,0.749,6.128,100.1585,-0.295,1.031,82.6,0,109.6,13.62,0.46,28.9
"2009-10-22 01:10:00",1348266,8.38,66.53,3.526,0.675,6.233,100.1594,-0.293,1.011,82.6,0,109.5,13.62,0.46,28.5
"2009-10-22 01:10:30",1348267,8.56,67.54,3.549,0.644,5.787,100.16,-0.292,1.012,82.6,0,109.5,13.62,0.46,29.5
"2009-10-22 01:11:00",1348268,8.53,67.54,3.848,0.562,5.564,100.1608,-0.29,1.005,82.7,0,109.5,13.62,0.46,29.5
"2009-10-22 01:11:30",1348269,8.24,64.93,3.002,0.824,5.392,100.1554,-0.303,0.995,82.7,0,109.5,13.62,0.45,26.9
"2009-10-22 01:12:00",1348270,8.14,68.35,2.398,0.794,5.442,100.1475,-0.323,0.991,82.8,0,109.5,13.61,0.43,30.3
"2009-10-22 01:12:30",1348271,8.17,66.38,3.421,0.719,5.239,100.1424,-0.336,0.998,82.8,0,109.5,13.61,0.41,28.4
"2009-10-22 01:13:00",1348272,7.994,67.93,3.33,0.794,5.162,100.1418,-0.338,0.976,83,0,109.5,13.6,0.41,29.9
"2009-10-22 01:13:30",1348273,8,66.99,4.242,0.696,5.048,100.1376,-0.349,0.975,83,0,109.5,13.6,0.40,29.0
"2009-10-22 01:14:00",1348274,7.597,63.1,3.004,0.935,5.053,100.1294,-0.37,0.976,83.1,0,109.5,13.6,0.38,25.1
"2009-10-22 01:14:30",1348275,7.509,59.7,3.609,0.648,4.822,100.1274,-0.375,0.975,83.2,0,109.5,13.6,0.38,21.7
"2009-10-22 01:15:00",1348276,6.557,58.05,4.44,0.739,4.674,100.1274,-0.375,0.96,83.4,0,109.5,13.6,0.38,20.0
"2009-10-22 01:15:30",1348277,6.507,65.41,4.598,0.734,4.557,100.1271,-0.375,0.954,83.5,0,109.5,13.6,0.38,27.4
"2009-10-22 01:16:00",1348278,7.28,69.08,4.373,0.643,4.743,100.1271,-0.375,0.959,83.6,0,109.5,13.6,0.38,31.1
"2009-10-22 01:16:30",1348279,6.197,57.77,5.808,0.77,1.378,100.1263,-0.378,0.822,83.6,0,109.5,13.6,0.37,19.8
"2009-10-22 01:17:00",1348280,6.618,62.52,6.194,1.238,1.997,100.1271,-0.375,0.655,83.5,0,109.5,13.61,0.38,24.5
"2009-10-22 01:17:30",1348281,6.816,69.78,6.862,1.126,3.649,100.1271,-0.375,0.857,83.7,0,109.5,13.61,0.38,31.8
"2009-10-22 01:18:00",1348282,7.498,68.36,4.589,0.622,5.773,100.1234,-0.385,0.932,83.9,0,109.5,13.62,0.37,30.4
"2009-10-22 01:18:30",1348283,7.502,66.44,4.364,0.615,6.047,100.1152,-0.406,0.938,83.9,0,109.5,13.62,0.34,28.4
"2009-10-22 01:19:00",1348284,7.959,66.3,3.855,0.651,6.028,100.1096,-0.42,0.919,84,0,109.5,13.62,0.33,28.3
"2009-10-22 01:19:30",1348285,7.799,65.78,3.762,0.76,5.584,100.1053,-0.431,0.918,84.1,0,109.5,13.62,0.32,27.8
"2009-10-22 01:20:00",1348286,7.757,65.13,4.657,0.637,5.589,100.0977,-0.451,0.91,84.2,0,109.5,13.62,0.30,27.1
"2009-10-22 01:20:30",1348287,7.776,67.2,4.434,0.729,5.145,100.0934,-0.461,0.879,84.2,0,109.5,13.62,0.29,29.2
"2009-10-22 01:21:00",1348288,7.452,69.85,2.916,0.722,5.02,100.0934,-0.461,0.899,84.3,0,109.5,13.62,0.29,31.8
"2009-10-22 01:21:30",1348289,7.445,69.2,4.762,0.397,5.228,100.0934,-0.461,0.854,84.3,0,109.5,13.62,0.29,31.2
"2009-10-22 01:22:00",1348290,7.154,73.32,3.593,0.894,4.415,100.094,-0.46,0.819,84.3,0,109.5,13.62,0.29,35.3
"2009-10-22 01:22:30",1348291,5.425,57.59,2.666,0.452,0.706,100.0968,-0.453,0.712,84.3,0,109.5,13.62,0.30,19.6
"2009-10-22 01:23:00",1348292,6.488,57.49,9.75,1.179,2.656,100.0951,-0.457,0.641,84.3,0,109.5,13.62,0.29,19.5
"2009-10-22 01:23:30",1348293,6.326,62.58,5.999,1.099,4.671,100.09,-0.47,0.847,84.7,0,109.5,13.62,0.28,24.6
"2009-10-22 01:24:00",1348294,6.53,65.2,4.313,0.709,5.686,100.0821,-0.49,0.867,84.8,0,109.5,13.62,0.26,27.2
"2009-10-22 01:24:30",1348295,7.134,70.83,4.464,0.676,5.974,100.0753,-0.508,0.847,84.9,0,109.5,13.62,0.24,32.8
"2009-10-22 01:25:00",1348296,7.265,71.99,3.407,0.803,5.294,100.0728,-0.514,0.875,85,0,109.5,13.62,0.24,34.0
"2009-10-22 01:25:30",1348297,7.584,73.97,3.21,0.754,5.122,100.0719,-0.516,0.841,85.1,0,109.5,13.62,0.23,36.0
"2009-10-22 01:26:00",1348298,5.984,69.62,7.038,1.412,2.783,100.0674,-0.528,0.671,85,0,109.5,13.62,0.22,31.6
"2009-10-22 01:26:30",1348299,6.035,66.63,5.126,1.303,3.28,100.0648,-0.534,0.715,85.1,0,109.5,13.62,0.22,28.6
"2009-10-22 01:27:00",1348300,5.886,64.18,5.685,1.129,2.089,100.0651,-0.534,0.67,85.2,0,109.5,13.62,0.22,26.2
"2009-10-22 01:27:30",1348301,7.569,72.68,5.055,0.926,4.901,100.0651,-0.534,0.815,85.4,0,109.5,13.62,0.22,34.7
"2009-10-22 01:28:00",1348302,7.465,71.86,3.966,0.857,5.368,100.0637,-0.537,0.794,85.5,0,109.5,13.62,0.21,33.9
"2009-10-22 01:28:30",1348303,7.672,72.82,3.69,0.653,5.926,100.066,-0.531,0.795,85.5,0,109.5,13.62,0.22,34.8
"2009-10-22 01:29:00",1348304,8.07,72.03,4.211,0.526,5.63,100.0578,-0.552,0.79,85.6,0,109.5,13.62,0.20,34.0
"2009-10-22 01:29:30",1348305,7.823,74.44,3.697,0.69,5.239,100.0433,-0.589,0.791,85.6,0,109.5,13.61,0.16,36.4
"2009-10-22 01:30:00",1348306,7.432,74.72,5.117,0.763,5.196,100.0365,-0.606,0.786,85.7,0,109.5,13.61,0.14,36.7
"2009-10-22 01:30:30",1348307,7.554,80.1,5.002,0.665,5.089,100.0328,-0.616,0.785,85.8,0,109.5,13.61,0.13,42.1
"2009-10-22 01:31:00",1348308,7.149,77.81,4.7,0.722,4.768,100.0334,-0.614,0.755,85.9,0,109.5,13.61,0.14,39.8
"2009-10-22 01:31:30",1348309,7.004,76.5,5.624,0.843,4.842,100.034,-0.613,0.738,85.9,0,109.5,13.61,0.14,38.5
"2009-10-22 01:32:00",1348310,6.752,67.69,7.162,1.156,3.021,100.034,-0.613,0.595,85.9,0,109.5,13.61,0.14,29.7
"2009-10-22 01:32:30",1348311,6.281,63.62,5.573,1.493,2.13,100.034,-0.613,0.573,86,0,109.5,13.61,0.14,25.6
"2009-10-22 01:33:00",1348312,6.667,68.06,9.72,1.186,2.647,100.034,-0.613,0.566,86,0,109.5,13.61,0.14,30.1
"2009-10-22 01:33:30",1348313,7.575,76.9,3.471,0.766,5.423,100.034,-0.613,0.707,86.3,0,109.5,13.62,0.14,38.9
"2009-10-22 01:34:00",1348314,8.14,75.86,4.165,0.535,5.737,100.0337,-0.614,0.724,86.4,0,109.5,13.62,0.14,37.9
"2009-10-22 01:34:30",1348315,7.891,71.65,3.697,0.787,5.526,100.0297,-0.624,0.732,86.4,0,109.5,13.62,0.13,33.7
"2009-10-22 01:35:00",1348316,8.07,72.6,4.391,0.481,5.791,100.0198,-0.649,0.712,86.5,0,109.5,13.62,0.10,34.6
"2009-10-22 01:35:30",1348317,8.13,72.13,3.929,0.671,5.49,100.0153,-0.661,0.701,86.6,0,109.5,13.62,0.09,34.1
"2009-10-22 01:36:00",1348318,7.888,76.29,2.168,0.82,5.099,100.0105,-0.673,0.703,86.6,0,109.5,13.62,0.08,38.3
"2009-10-22 01:36:30",1348319,7.709,75.44,4.202,0.851,4.649,100.0011,-0.697,0.676,86.7,0,109.5,13.62,0.05,37.4
"2009-10-22 01:37:00",1348320,6.852,71.66,6.242,1.223,3.209,100,-0.7,0.6,86.7,0,109.5,13.62,0.05,33.7
"2009-10-22 01:37:30",1348321,6.548,69.87,6.69,1.146,2.464,100,-0.7,0.466,86.6,0,109.5,13.62,0.05,31.9
"2009-10-22 01:38:00",1348322,7.131,75.91,5.461,0.98,4.893,100,-0.7,0.601,86.8,0,109.5,13.62,0.05,37.9
"2009-10-22 01:38:30",1348323,7.053,79.82,3.408,0.843,5.411,100,-0.7,0.669,86.9,0,109.5,13.62,0.05,41.8
"2009-10-22 01:39:00",1348324,7.176,79.12,5.918,0.606,5.509,100,-0.7,0.651,86.9,0,109.5,13.62,0.05,41.1
"2009-10-22 01:39:30",1348325,7.181,75,4.51,0.651,5.355,100,-0.7,0.664,87,0,109.5,13.62,0.05,37.0
"2009-10-22 01:40:00",1348326,6.496,67.58,5.589,1.177,3.927,100,-0.7,0.593,87.1,0,109.5,13.62,0.05,29.6
"2009-10-22 01:40:30",1348327,5.26,59.67,4.598,0.965,1.325,100,-0.7,0.373,86.9,0,109.5,13.62,0.05,21.7
"2009-10-22 01:41:00",1348328,6.199,70.96,5.694,1.064,4.089,100,-0.7,0.649,87.3,0,109.5,13.62,0.05,33.0
"2009-10-22 01:41:30",1348329,5.888,75.28,6.017,1.049,4.869,99.99972,-0.7,0.577,87.3,0,109.5,13.63,0.05,37.3
"2009-10-22 01:42:00",1348330,5.7,75.89,7.674,0.759,5.342,99.99886,-0.702,0.627,87.4,0,109.5,13.63,0.05,37.9
"2009-10-22 01:42:30",1348331,6.098,71.66,6.006,1.259,4.195,99.99858,-0.703,0.594,87.4,0,109.5,13.63,0.05,33.7
"2009-10-22 01:43:00",1348332,6.664,69.18,5.624,1.188,4.147,99.99377,-0.715,0.515,87.4,0,109.5,13.63,0.03,31.2
"2009-10-22 01:43:30",1348333,6.576,68.49,6.44,1.188,3.417,99.99065,-0.723,0.544,87.5,0,109.5,13.63,0.03,30.5
"2009-10-22 01:44:00",1348334,7.908,73.18,2.909,0.76,5.251,99.98386,-0.741,0.609,87.6,0,109.5,13.63,0.01,35.2
"2009-10-22 01:44:30",1348335,7.821,72.88,4.554,0.667,5.488,99.98357,-0.741,0.583,87.6,0,109.5,13.62,0.01,34.9
"2009-10-22 01:45:00",1348336,7.659,75.58,3.172,0.718,5.678,99.98046,-0.749,0.611,87.7,0,109.5,13.62,-0.00,37.6
"2009-10-22 01:45:30",1348337,6.997,73.45,6.328,1.005,4.792,99.98159,-0.747,0.537,87.6,0,109.5,13.62,0.00,35.4
"2009-10-22 01:46:00",1348338,6.17,76.59,5.579,1.319,4.352,99.98131,-0.747,0.553,87.6,0,109.5,13.62,0.00,38.6
"2009-10-22 01:46:30",1348339,6.504,69.25,5.508,1.138,2.707,99.98301,-0.743,0.432,87.5,0,109.5,13.62,0.01,31.2
"2009-10-22 01:47:00",1348340,6.912,75.61,6.073,1.059,4.576,99.98244,-0.744,0.52,87.6,0,109.5,13.62,0.01,37.6
"2009-10-22 01:47:30",1348341,6.865,75.76,5.043,0.913,5.176,99.98188,-0.746,0.562,87.7,0,109.5,13.62,0.00,37.8
"2009-10-22 01:48:00",1348342,6.662,72.26,5.373,1.224,4.761,99.98527,-0.737,0.515,87.6,0,109.5,13.62,0.01,34.3
"2009-10-22 01:48:30",1348343,6.743,72.48,5.202,1.114,4.552,99.98329,-0.742,0.517,87.6,0,109.5,13.62,0.01,34.5
"2009-10-22 01:49:00",1348344,6.552,70.71,6.225,1.194,4.382,99.98584,-0.736,0.558,87.7,0,109.5,13.62,0.01,32.7
"2009-10-22 01:49:30",1348345,7.08,73.44,4.472,0.915,4.889,99.99065,-0.723,0.594,87.7,0,109.5,13.62,0.03,35.4